Location: Poughquag
(41.6090°N, 73.6820°W)
Time: 11:50:37
(UTC-04:00)

Vanguard 1 Rocket - Pass Details

Date: 03 June 2020
Orbit: 653 x 4224 km, 34.3° (Epoch: 06 July)

Event Time Altitude Azimuth Distance (km) Brightness Sun altitude
Rises 01:42:04 0° 251° (WSW) 8,167 12.0 -25.0°
Reaches altitude 10° 01:48:18 10° 249° (WSW) 6,797 11.5 -24.7°
Maximum altitude 02:07:57 62° 176° (S) 2,600 9.3 -23.7°
Drops below altitude 10° 02:18:01 10° 98° (E) 3,725 10.7 -23.0°
Sets 02:20:24 0° 95° (E) 4,395 11.1 -22.9°
